Regional Weather Roundup
Issued by NWS

Current Version | Previous Version | Text Only | Print | Product List | Glossary On
Versions: 1 2 3 4 5 6 7 8 9 10 11 12 13 14 15 16 17 18 19 20 21 22 23 24 25 26 27 28 29 30 31 32 33 34 35 36 37 38 39 40 41 42 43 44 45 46 47 48 49 50
000
ASUS44 KOUN 261810
RWROK

WEATHER ROUNDUP FOR OKLAHOMA
NATIONAL WEATHER SERVICE NORMAN OK
100 PM CDT MON OCT 26 2020

NOTE: "FAIR" INDICATES FEW OR NO CLOUDS BELOW 12,000 FEET WITH NO
      SIGNIFICANT WEATHER AND/OR OBSTRUCTIONS TO VISIBILITY.

OKZ001>007-009>012-014-015-017-261900-
NORTHWEST OKLAHOMA AND THE PANHANDLE

CITY           SKY/WX    TMP DP  RH WIND       PRES   REMARKS
GAGE           CLOUDY    23  19  86 N16G26    30.35R FOG     WCI  10
GUYMON         LGT SNOW  20  15  81 N17       30.34F WCI   5
ENID/WOODRING  CLOUDY    28  27  93 N18       30.29F WCI  16
$$

OKZ016-021>023-033>039-044-045-261900-
SOUTHWEST OKLAHOMA

CITY           SKY/WX    TMP DP  RH WIND       PRES   REMARKS
LAWTON/REGL    CLOUDY    33  30  88 N17G28    30.24R FOG     WCI  22
6HR MIN TEMP:  33; 6HR MAX TEMP:  34; 6HR PCP:  1.60;

LAWTON/FT SILL TSTM      32  32 100 NE9       30.21S FOG     WCI  24
CLINTON        CLOUDY    24  22  91 N24G37    30.29F WCI   8
HOBART         CLOUDY    28  24  85 N21G35    30.28F WCI  15
ALTUS AFB      FLURRIES  30  30 100 N15G22    30.28R WCI  19
$$

OKZ018>020-024>031-261900-
CENTRAL OKLAHOMA

CITY           SKY/WX    TMP DP  RH WIND       PRES   REMARKS
OKLAHOMA CITY  TSTM      31  29  92 N22G28    30.23F FOG     WCI  18
6HR MIN TEMP:  31; 6HR MAX TEMP:  32; 6HR PCP:  1.11;

OKC/WILEY POST FRZ RAIN  32  29  88 N17G28    30.28R WCI  21
OKC/TINKER AFB TSTM      32  30  93 N9        30.24S WCI  24
STILLWATER     LGT RAIN  32  29  88 N20G26    30.31S WCI  20
GUTHRIE        FRZ RAIN  30  30 100 N9G22     30.27F FOG     WCI  22
$$

OKZ008-013-054>072-261900-
NORTHEAST OKLAHOMA

CITY           SKY/WX    TMP DP  RH WIND       PRES   REMARKS
TULSA          RAIN      34  33  96 N12G20    30.30R FOG     WCI  25
6HR MIN TEMP:  34; 6HR MAX TEMP:  38; 6HR PCP:  1.12;

TULSA/JONES    HVY RAIN  37  33  85 N13G23    30.25F FOG     WCI  29
PONCA CITY     CLOUDY    30  25  81 N21G28    30.32F WCI  17
BARTLESVILLE   MIX PCPN  32  30  92 N16G24    30.32F WCI  21
$$

OKZ032-040>043-046>053-073>077-261900-
SOUTH CENTRAL/SOUTHEAST OKLAHOMA

CITY           SKY/WX    TMP DP  RH WIND       PRES   REMARKS
ARDMORE/DWNTWN CLOUDY    37  36  93 N13G20    30.16F WCI  29
MCALESTER      LGT RAIN  42  40  92 N14G21    30.19F WCI  35
$$




USA.gov is the U.S. government's official web portal to all federal, state and local government web resources and services.